When you browse on this site, cookies collect data to enhance your experience and personalize the content and advertising you see.
Visit our Privacy Policy to learn more. By continuing to use the site, you agree to this use of cookies and data.
  • In Sweden
  • List of Countries
  • For 7 days
  • Water Temperature
  • Satellite Maps
  • Weather Map
  • Weather Widgets
  • user-avatar
    Login

    Hourly Weather Chernoe

    Today, 19 June, Wednesday

    Time Temperature Precipitation Wind Pressure Humidity
    00:00 +13°C° 0 mm 2 mps 745 mmHg 59%
    01:00 +13°C° 0 mm 1 mps 745 mmHg 60%
    02:00 +12°C° 0 mm 1 mps 745 mmHg 62%
    03:00 +13°C° 0 mm 2 mps 745 mmHg 61%
    04:00 +14°C° 0 mm 2 mps 745 mmHg 61%
    05:00 +14°C° 0 mm 2 mps 746 mmHg 60%
    06:00 +15°C° 0 mm 2 mps 746 mmHg 59%
    07:00 +16°C° 0 mm 2 mps 746 mmHg 57%
    08:00 +17°C° 0 mm 2 mps 746 mmHg 55%
    09:00 +18°C° 0 mm 3 mps 746 mmHg 51%
    10:00 +20°C° 0 mm 3 mps 746 mmHg 47%
    11:00 +21°C° 0 mm 3 mps 746 mmHg 43%
    12:00 +22°C° 0 mm 3 mps 745 mmHg 41%
    13:00 +22°C° 0 mm 3 mps 745 mmHg 40%
    14:00 +24°C° 0 mm 3 mps 745 mmHg 38%
    15:00 +24°C° 0 mm 3 mps 745 mmHg 39%
    16:00 +24°C° 0 mm 2 mps 745 mmHg 41%
    17:00 +24°C° 0 mm 2 mps 745 mmHg 42%
    18:00 +21°C° 0 mm 2 mps 746 mmHg 48%
    19:00 +19°C° 0 mm 2 mps 746 mmHg 53%
    20:00 +18°C° 0 mm 2 mps 746 mmHg 59%
    21:00 +17°C° 0 mm 2 mps 746 mmHg 61%
    22:00 +16°C° 0 mm 2 mps 747 mmHg 64%
    23:00 +16°C° 0 mm 3 mps 747 mmHg 66%

    Tomorrow, 20 June, Thursday

    Time Temperature Precipitation Wind Pressure Humidity
    00:00 +14°C° 0 mm 3 mps 747 mmHg 68%
    01:00 +15°C° 0 mm 2 mps 747 mmHg 69%
    02:00 +14°C° 0 mm 2 mps 748 mmHg 71%
    03:00 +15°C° 0 mm 2 mps 748 mmHg 71%
    04:00 +15°C° 0 mm 2 mps 748 mmHg 72%
    05:00 +15°C° 0 mm 2 mps 749 mmHg 73%
    06:00 +17°C° 0 mm 2 mps 749 mmHg 68%
    07:00 +18°C° 0 mm 3 mps 749 mmHg 62%
    08:00 +20°C° 0 mm 3 mps 750 mmHg 57%
    09:00 +21°C° 0 mm 3 mps 750 mmHg 52%
    10:00 +21°C° 0 mm 2 mps 750 mmHg 47%
    11:00 +23°C° 0 mm 2 mps 750 mmHg 42%
    12:00 +24°C° 0 mm 2 mps 750 mmHg 39%
    13:00 +25°C° 0 mm 3 mps 750 mmHg 37%
    14:00 +25°C° 0 mm 3 mps 750 mmHg 34%
    15:00 +25°C° 0 mm 3 mps 749 mmHg 34%
    16:00 +25°C° 0 mm 3 mps 749 mmHg 33%
    17:00 +25°C° 0 mm 3 mps 749 mmHg 33%
    18:00 +24°C° 0 mm 3 mps 750 mmHg 38%
    19:00 +21°C° 0 mm 2 mps 750 mmHg 43%
    20:00 +19°C° 0 mm 2 mps 750 mmHg 48%
    21:00 +19°C° 0 mm 2 mps 750 mmHg 49%
    22:00 +18°C° 0 mm 2 mps 750 mmHg 50%
    23:00 +17°C° 0 mm 2 mps 750 mmHg 52%

    Day after tomorrow, 21 June, Friday

    Time Temperature Precipitation Wind Pressure Humidity
    00:00 +17°C° 0 mm 2 mps 750 mmHg 54%
    01:00 +16°C° 0 mm 2 mps 750 mmHg 57%
    02:00 +16°C° 0 mm 2 mps 750 mmHg 59%
    03:00 +16°C° 0 mm 2 mps 750 mmHg 60%
    04:00 +16°C° 0 mm 1 mps 750 mmHg 61%
    05:00 +18°C° 0 mm 1 mps 750 mmHg 62%
    06:00 +20°C° 0 mm 1 mps 750 mmHg 56%
    07:00 +21°C° 0 mm 2 mps 750 mmHg 50%
    08:00 +23°C° 0 mm 2 mps 750 mmHg 44%
    09:00 +24°C° 0 mm 2 mps 749 mmHg 40%
    10:00 +26°C° 0 mm 2 mps 749 mmHg 36%
    11:00 +27°C° 0 mm 2 mps 749 mmHg 32%
    12:00 +27°C° 0 mm 2 mps 748 mmHg 31%
    13:00 +28°C° 0 mm 1 mps 748 mmHg 30%
    14:00 +28°C° 0 mm 1 mps 747 mmHg 29%
    15:00 +28°C° 0 mm 1 mps 747 mmHg 29%
    16:00 +29°C° 0 mm 1 mps 747 mmHg 30%
    17:00 +29°C° 0 mm 1 mps 746 mmHg 30%
    18:00 +27°C° 0 mm 1 mps 746 mmHg 35%
    19:00 +25°C° 0 mm 1 mps 746 mmHg 39%
    20:00 +24°C° 0 mm 1 mps 746 mmHg 44%
    21:00 +23°C° 0 mm 2 mps 746 mmHg 46%
    22:00 +21°C° 0 mm 2 mps 746 mmHg 48%
    23:00 +20°C° 0 mm 2 mps 745 mmHg 50%

    22 June, Saturday

    Time Temperature Precipitation Wind Pressure Humidity
    00:00 +19°C° 0 mm 2 mps 745 mmHg 52%
    01:00 +19°C° 0 mm 2 mps 745 mmHg 54%
    02:00 +18°C° 0 mm 2 mps 744 mmHg 56%
    03:00 +20°C° 0 mm 1 mps 744 mmHg 57%
    04:00 +20°C° 0 mm 1 mps 744 mmHg 58%
    05:00 +21°C° 0 mm 1 mps 744 mmHg 59%
    06:00 +21°C° 0 mm 3 mps 745 mmHg 59%
    07:00 +24°C° 0 mm 3 mps 745 mmHg 53%
    08:00 +26°C° 0 mm 3 mps 745 mmHg 48%
    09:00 +27°C° 0 mm 3 mps 745 mmHg 43%
    10:00 +28°C° 0 mm 3 mps 744 mmHg 39%
    11:00 +29°C° 0 mm 3 mps 744 mmHg 35%
    12:00 +29°C° 0 mm 4 mps 744 mmHg 37%
    13:00 +29°C° 0 mm 6 mps 744 mmHg 38%
    14:00 +29°C° 0 mm 7 mps 744 mmHg 40%
    15:00 +28°C° 0 mm 7 mps 744 mmHg 42%
    16:00 +27°C° 0 mm 7 mps 744 mmHg 43%
    17:00 +26°C° 0 mm 7 mps 744 mmHg 45%
    18:00 +24°C° 0 mm 7 mps 745 mmHg 47%
    19:00 +22°C° 0 mm 6 mps 745 mmHg 48%
    20:00 +20°C° 0 mm 5 mps 746 mmHg 50%
    21:00 +19°C° 0 mm 6 mps 746 mmHg 55%
    22:00 +17°C° 0 mm 7 mps 747 mmHg 61%
    23:00 +15°C° 0 mm 8 mps 747 mmHg 66%

    23 June, Sunday

    Time Temperature Precipitation Wind Pressure Humidity
    00:00 +14°C° 0 mm 7 mps 747 mmHg 69%
    01:00 +13°C° 0 mm 6 mps 748 mmHg 72%
    02:00 +12°C° 0 mm 5 mps 748 mmHg 74%
    03:00 +11°C° 0 mm 6 mps 748 mmHg 75%
    04:00 +11°C° 0 mm 6 mps 748 mmHg 75%
    05:00 +11°C° 0 mm 6 mps 749 mmHg 75%
    06:00 +13°C° 0 mm 6 mps 749 mmHg 67%
    07:00 +14°C° 0 mm 7 mps 749 mmHg 59%
    08:00 +15°C° 0 mm 7 mps 749 mmHg 51%
    09:00 +16°C° 0 mm 7 mps 749 mmHg 49%
    10:00 +16°C° 0 mm 7 mps 749 mmHg 46%
    11:00 +17°C° 0 mm 7 mps 749 mmHg 44%
    12:00 +17°C° 0 mm 7 mps 749 mmHg 41%
    13:00 +18°C° 0 mm 7 mps 749 mmHg 39%
    14:00 +20°C° 0 mm 7 mps 749 mmHg 36%
    15:00 +20°C° 0 mm 7 mps 750 mmHg 36%
    16:00 +20°C° 0 mm 6 mps 750 mmHg 36%
    17:00 +19°C° 0 mm 6 mps 750 mmHg 36%
    18:00 +17°C° 0 mm 5 mps 750 mmHg 41%
    19:00 +17°C° 0 mm 4 mps 750 mmHg 46%
    20:00 +15°C° 0 mm 2 mps 750 mmHg 52%
    21:00 +14°C° 0 mm 2 mps 750 mmHg 54%
    22:00 +14°C° 0 mm 1 mps 750 mmHg 57%
    23:00 +13°C° 0 mm 1 mps 750 mmHg 60%

    24 June, Monday

    Time Temperature Precipitation Wind Pressure Humidity
    00:00 +12°C° 0 mm 1 mps 750 mmHg 61%
    01:00 +12°C° 0 mm 2 mps 750 mmHg 63%
    02:00 +12°C° 0 mm 2 mps 750 mmHg 64%
    03:00 +12°C° 0 mm 2 mps 750 mmHg 63%
    04:00 +13°C° 0 mm 2 mps 750 mmHg 62%
    05:00 +13°C° 0 mm 2 mps 750 mmHg 60%
    06:00 +15°C° 0 mm 2 mps 750 mmHg 53%
    07:00 +17°C° 0 mm 3 mps 750 mmHg 46%
    08:00 +19°C° 0 mm 3 mps 750 mmHg 39%
    09:00 +20°C° 0 mm 4 mps 749 mmHg 38%
    10:00 +21°C° 0 mm 4 mps 749 mmHg 36%
    11:00 +22°C° 0 mm 4 mps 749 mmHg 34%
    12:00 +23°C° 0 mm 4 mps 749 mmHg 34%
    13:00 +25°C° 0 mm 3 mps 748 mmHg 33%
    14:00 +26°C° 0 mm 3 mps 748 mmHg 33%
    15:00 +26°C° 0 mm 3 mps 748 mmHg 33%
    16:00 +26°C° 0 mm 2 mps 747 mmHg 34%
    17:00 +26°C° 0 mm 2 mps 747 mmHg 34%
    18:00 +24°C° 0 mm 1 mps 747 mmHg 41%
    19:00 +22°C° 0 mm 1 mps 747 mmHg 47%
    20:00 +21°C° 0 mm 1 mps 747 mmHg 54%
    21:00 +20°C° 0 mm 1 mps 747 mmHg 54%
    22:00 +20°C° 0 mm 1 mps 747 mmHg 54%
    23:00 +19°C° 0 mm 1 mps 747 mmHg 55%
    Show more